When you browse on this site, cookies collect data to enhance your experience and personalize the content and advertising you see.
Visit our Privacy Policy to learn more. By continuing to use the site, you agree to this use of cookies and data.
  • en France
  • Liste des pays
  • À 7 jours
  • Température de l'eau
  • Carte météo
  • Widgets météo
  • user-avatar
    Se connecter

    Météo par heure à Totonicapán

    Ce jour, 27 Mai, Mercredi

    Heure Température Précipitation Vent Pression Humidité
    00:00 +12°C° 0.3 mm 1 m/s 554 mmHg 85%
    01:00 +12°C° 0.3 mm 1 m/s 554 mmHg 85%
    02:00 +12°C° 0.3 mm 1 m/s 553 mmHg 85%
    03:00 +12°C° 0.3 mm 1 m/s 553 mmHg 86%
    04:00 +12°C° 0.2 mm 1 m/s 553 mmHg 86%
    05:00 +12°C° 0.2 mm 1 m/s 553 mmHg 87%
    06:00 +12°C° 0.2 mm 1 m/s 554 mmHg 88%
    07:00 +13°C° 0.4 mm 1 m/s 555 mmHg 83%
    08:00 +15°C° 0.4 mm 1 m/s 556 mmHg 79%
    09:00 +18°C° 0.4 mm 1 m/s 557 mmHg 74%
    10:00 +18°C° 0.9 mm 1 m/s 557 mmHg 70%
    11:00 +18°C° 0.9 mm 2 m/s 557 mmHg 66%
    12:00 +19°C° 0.9 mm 2 m/s 557 mmHg 63%
    13:00 +19°C° 0.5 mm 2 m/s 557 mmHg 62%
    14:00 +19°C° 0.5 mm 2 m/s 556 mmHg 61%
    15:00 +19°C° 0.5 mm 2 m/s 556 mmHg 60%
    16:00 +18°C° 0.8 mm 2 m/s 555 mmHg 68%
    17:00 +16°C° 0.8 mm 1 m/s 554 mmHg 77%
    18:00 +15°C° 0.8 mm 1 m/s 554 mmHg 85%
    19:00 +14°C° 0.3 mm 1 m/s 554 mmHg 86%
    20:00 +13°C° 0.3 mm 1 m/s 554 mmHg 87%
    21:00 +12°C° 0.3 mm 1 m/s 554 mmHg 88%
    22:00 +12°C° 0.3 mm 1 m/s 554 mmHg 87%
    23:00 +13°C° 0.3 mm 1 m/s 554 mmHg 86%

    Demain, 28 Mai, Jeudi

    Heure Température Précipitation Vent Pression Humidité
    00:00 +13°C° 0.3 mm 1 m/s 555 mmHg 86%
    01:00 +13°C° 0.2 mm 1 m/s 554 mmHg 86%
    02:00 +12°C° 0.2 mm 1 m/s 554 mmHg 87%
    03:00 +12°C° 0.2 mm 1 m/s 553 mmHg 88%
    04:00 +12°C° 0 mm 1 m/s 553 mmHg 87%
    05:00 +12°C° 0 mm 1 m/s 553 mmHg 87%
    06:00 +12°C° 0 mm 1 m/s 553 mmHg 86%
    07:00 +14°C° 0 mm 1 m/s 555 mmHg 78%
    08:00 +16°C° 0 mm 1 m/s 556 mmHg 70%
    09:00 +19°C° 0 mm 1 m/s 557 mmHg 62%
    10:00 +19°C° 0.7 mm 1 m/s 557 mmHg 65%
    11:00 +18°C° 0.7 mm 2 m/s 557 mmHg 68%
    12:00 +18°C° 0.7 mm 2 m/s 557 mmHg 71%
    13:00 +17°C° 1.3 mm 2 m/s 556 mmHg 76%
    14:00 +16°C° 1.3 mm 2 m/s 555 mmHg 80%
    15:00 +15°C° 1.3 mm 1 m/s 554 mmHg 84%
    16:00 +15°C° 0.7 mm 1 m/s 554 mmHg 87%
    17:00 +14°C° 0.7 mm 1 m/s 554 mmHg 89%
    18:00 +13°C° 0.7 mm 1 m/s 554 mmHg 91%
    19:00 +13°C° 0.4 mm 1 m/s 554 mmHg 90%
    20:00 +13°C° 0.4 mm 1 m/s 554 mmHg 90%
    21:00 +13°C° 0.4 mm 1 m/s 554 mmHg 90%
    22:00 +12°C° 0 mm 1 m/s 554 mmHg 90%
    23:00 +12°C° 0 mm 1 m/s 554 mmHg 90%

    Après-demain, 29 Mai, Vendredi

    Heure Température Précipitation Vent Pression Humidité
    00:00 +12°C° 0 mm 1 m/s 554 mmHg 90%
    01:00 +12°C° 0.3 mm 1 m/s 554 mmHg 92%
    02:00 +12°C° 0.3 mm 1 m/s 553 mmHg 93%
    03:00 +11°C° 0.3 mm 1 m/s 553 mmHg 95%
    04:00 +11°C° 1.1 mm 1 m/s 553 mmHg 93%
    05:00 +11°C° 1.1 mm 1 m/s 553 mmHg 92%
    06:00 +11°C° 1.1 mm 1 m/s 553 mmHg 90%
    07:00 +12°C° 0 mm 1 m/s 554 mmHg 85%
    08:00 +13°C° 0 mm 1 m/s 555 mmHg 81%
    09:00 +15°C° 0 mm 1 m/s 556 mmHg 76%
    10:00 +15°C° 0.2 mm 2 m/s 556 mmHg 73%
    11:00 +16°C° 0.2 mm 2 m/s 556 mmHg 70%
    12:00 +16°C° 0.2 mm 3 m/s 556 mmHg 67%
    13:00 +14°C° 0.3 mm 3 m/s 555 mmHg 71%
    14:00 +13°C° 0.3 mm 3 m/s 554 mmHg 74%
    15:00 +12°C° 0.3 mm 3 m/s 553 mmHg 77%
    16:00 +12°C° 0.8 mm 2 m/s 552 mmHg 81%
    17:00 +10°C° 0.8 mm 2 m/s 552 mmHg 85%
    18:00 +9°C° 0.8 mm 2 m/s 551 mmHg 89%
    19:00 +10°C° 0.2 mm 2 m/s 552 mmHg 89%
    20:00 +10°C° 0.2 mm 2 m/s 552 mmHg 88%
    21:00 +10°C° 0.2 mm 2 m/s 553 mmHg 88%
    22:00 +10°C° 0 mm 2 m/s 553 mmHg 88%
    23:00 +10°C° 0 mm 2 m/s 553 mmHg 87%

    30 Mai, Samedi

    Heure Température Précipitation Vent Pression Humidité
    00:00 +10°C° 0 mm 2 m/s 553 mmHg 87%
    01:00 +10°C° 0.1 mm 2 m/s 552 mmHg 87%
    02:00 +9°C° 0.1 mm 2 m/s 552 mmHg 88%
    03:00 +9°C° 0.1 mm 2 m/s 551 mmHg 88%
    04:00 +9°C° 0.2 mm 2 m/s 551 mmHg 88%
    05:00 +9°C° 0.2 mm 2 m/s 551 mmHg 88%
    06:00 +9°C° 0.2 mm 3 m/s 551 mmHg 88%
    07:00 +9°C° 0.5 mm 3 m/s 551 mmHg 88%
    08:00 +10°C° 0.5 mm 3 m/s 552 mmHg 88%
    09:00 +10°C° 0.5 mm 3 m/s 552 mmHg 89%
    10:00 +10°C° 2 mm 3 m/s 552 mmHg 90%
    11:00 +10°C° 2 mm 3 m/s 551 mmHg 92%
    12:00 +10°C° 2 mm 3 m/s 551 mmHg 93%
    13:00 +10°C° 1.3 mm 3 m/s 551 mmHg 93%
    14:00 +10°C° 1.3 mm 4 m/s 550 mmHg 93%
    15:00 +10°C° 1.3 mm 4 m/s 550 mmHg 92%
    16:00 +10°C° 2.4 mm 4 m/s 549 mmHg 93%
    17:00 +8°C° 2.4 mm 4 m/s 549 mmHg 94%
    18:00 +8°C° 2.4 mm 4 m/s 549 mmHg 94%
    19:00 +8°C° 3.7 mm 4 m/s 549 mmHg 94%
    20:00 +8°C° 3.7 mm 4 m/s 549 mmHg 94%
    21:00 +8°C° 3.7 mm 4 m/s 549 mmHg 95%
    22:00 +8°C° 5.4 mm 4 m/s 549 mmHg 95%
    23:00 +9°C° 5.4 mm 3 m/s 549 mmHg 96%

    31 Mai, Dimanche

    Heure Température Précipitation Vent Pression Humidité
    00:00 +9°C° 5.4 mm 3 m/s 548 mmHg 97%
    01:00 +9°C° 9.8 mm 3 m/s 548 mmHg 97%
    02:00 +9°C° 9.8 mm 3 m/s 548 mmHg 97%
    03:00 +9°C° 9.8 mm 3 m/s 548 mmHg 97%
    04:00 +9°C° 6.3 mm 3 m/s 549 mmHg 97%
    05:00 +9°C° 6.3 mm 2 m/s 549 mmHg 97%
    06:00 +10°C° 6.3 mm 1 m/s 549 mmHg 98%
    07:00 +10°C° 0.8 mm 1 m/s 550 mmHg 97%
    08:00 +11°C° 0.8 mm 1 m/s 551 mmHg 96%
    09:00 +11°C° 0.8 mm 1 m/s 551 mmHg 95%
    10:00 +11°C° 0.2 mm 1 m/s 551 mmHg 95%
    11:00 +12°C° 0.2 mm 1 m/s 552 mmHg 94%
    12:00 +12°C° 0.2 mm 1 m/s 552 mmHg 94%
    13:00 +12°C° 0.3 mm 1 m/s 551 mmHg 94%
    14:00 +11°C° 0.3 mm 0 m/s 551 mmHg 94%
    15:00 +11°C° 0.3 mm 0 m/s 551 mmHg 94%
    16:00 +11°C° 0.3 mm 0 m/s 551 mmHg 94%
    17:00 +10°C° 0.3 mm 0 m/s 551 mmHg 95%
    18:00 +10°C° 0.3 mm 0 m/s 551 mmHg 96%
    19:00 +10°C° 1.1 mm 0 m/s 551 mmHg 97%
    20:00 +10°C° 1.1 mm 0 m/s 551 mmHg 98%
    21:00 +11°C° 1.1 mm 1 m/s 552 mmHg 98%
    22:00 +10°C° 1 mm 0 m/s 552 mmHg 98%
    23:00 +10°C° 1 mm 0 m/s 552 mmHg 97%

    1 Juin, Lundi

    Heure Température Précipitation Vent Pression Humidité
    00:00 +10°C° 1 mm 0 m/s 552 mmHg 96%
    01:00 +10°C° 0.2 mm 0 m/s 552 mmHg 96%
    02:00 +10°C° 0.2 mm 0 m/s 551 mmHg 96%
    03:00 +10°C° 0.2 mm 0 m/s 551 mmHg 96%
    04:00 +10°C° 0 mm 0 m/s 551 mmHg 95%
    05:00 +10°C° 0 mm 0 m/s 551 mmHg 94%
    06:00 +10°C° 0 mm 0 m/s 551 mmHg 93%
    07:00 +12°C° 0.1 mm 1 m/s 553 mmHg 90%
    08:00 +14°C° 0.1 mm 1 m/s 554 mmHg 86%
    09:00 +15°C° 0.1 mm 1 m/s 555 mmHg 83%
    10:00 +16°C° 0.7 mm 1 m/s 555 mmHg 82%
    11:00 +16°C° 0.7 mm 1 m/s 555 mmHg 82%
    12:00 +16°C° 0.7 mm 1 m/s 555 mmHg 82%
    13:00 +16°C° 1.4 mm 1 m/s 554 mmHg 86%
    14:00 +15°C° 1.4 mm 1 m/s 553 mmHg 89%
    15:00 +14°C° 1.4 mm 1 m/s 553 mmHg 93%
    16:00 +14°C° 2.4 mm 1 m/s 552 mmHg 95%
    17:00 +13°C° 2.4 mm 1 m/s 552 mmHg 96%
    18:00 +13°C° 2.4 mm 1 m/s 552 mmHg 98%
    19:00 +11°C° 2.9 mm 0 m/s 553 mmHg 97%
    20:00 +11°C° 2.9 mm 0 m/s 553 mmHg 96%
    21:00 +11°C° 2.9 mm 0 m/s 553 mmHg 96%
    22:00 +11°C° 0.3 mm 0 m/s 553 mmHg 95%
    23:00 +10°C° 0.3 mm 0 m/s 552 mmHg 95%
    Voir plus